Preview of NWS' New Version of Forecast
This preview is not operational and should not be used for support decisions.

Regional Weather Roundup (RWR)

Issued by National Weather Service (NWS)

                            
000
ASUS43 KLSX 182157
RWRMO 

WEATHER SUMMARY FOR MISSOURI
NATIONAL WEATHER SERVICE SPRINGFIELD MO
500 PM CDT SAT MAY 18 2019

NOTE: "FAIR" INDICATES FEW OR NO CLOUDS BELOW 12,000 FEET WITH NO
       SIGNIFICANT WEATHER AND/OR OBSTRUCTIONS TO VISIBILITY.
       CURRENT SKY AND/OR WEATHER CONDITIONS ARE NOT AVAILABLE FOR
       CHILLICOTHE AND FARMINGTON.

MOZ001>031-035>038-043-044-053-054-182300-
...NORTHERN AND WESTERN MISSOURI...
  
CITY           SKY/WX    TMP DP  RH WIND       PRES   REMARKS
KANSAS CTY INT CLOUDY    64  64 100 CALM      29.62R                  
LEE'S SUMMIT   LGT RAIN  64  60  87 N5        29.63F                  
ST JOSEPH      LGT RAIN  63  62  97 N9        29.59F                  
CHILLICOTHE      N/A     65  63  93 VRB3      29.66R                  
     
$$
MOZ066>068-077>081-088>096-101>105-182300-
...SOUTHWEST MISSOURI...
  
CITY           SKY/WX    TMP DP  RH WIND       PRES   REMARKS
SPRINGFIELD    RAIN      63  60  90 SW12      29.73S                  
JOPLIN         LGT RAIN  63  60  90 SE12G23   29.61F                  
BRANSON        CLOUDY    61  61 100 W6        29.78F                  
               
$$
MOZ032>034-039>042-045>050-055>058-069>072-182300-
...CENTRAL MISSOURI...  
  
CITY           SKY/WX    TMP DP  RH WIND       PRES   REMARKS
COLUMBIA       NOT AVBL                                               
JEFFERSON CITY CLOUDY    83  62  49 S18G30    29.63F                  
ROLLA          PTSUNNY   79  61  53 S20G36    29.70F                  
SEDALIA        TSTM      62  62 100 W13G32    29.66  VSB 1            
WHITEMAN AFB   CLOUDY    73  66  78 VRB5      29.66R                  
WARRENSBURG    RAIN      63  63 100 W3        29.65R                  
               
$$
MOZ051-052-059>065-182300-
...EAST CENTRAL MISSOURI...
  
CITY           SKY/WX    TMP DP  RH WIND       PRES   REMARKS
ST LOUIS INTL  PTSUNNY   87  54  32 S18G26    29.72F                  
                   
$$
MOZ072>076-082>087-097>100-106>115-182300-
...SOUTH CENTRAL AND SOUTHEAST MISSOURI...
  
CITY           SKY/WX    TMP DP  RH WIND       PRES   REMARKS
CAPE GIRARDEAU FAIR      84  58  40 S18G26    29.78F                  
FARMINGTON     CLOUDY    82  61  47 S13G24    29.78S                  
POPLAR BLUFF   FAIR      85  60  42 S16G30    29.77F                  
WEST PLAINS    CLOUDY    78  64  61 S15G25    29.75F                  
                                       
$$